Total_Precipitation_Accumulation
0.10 0.10 0.21 0.20 0.12 0.08 0.10 0.15 0.19 0.19 0.16 0.15 0.15 0.13 0.11 0.07 0.05 0.05 0.06 0.08 0.09 0.12 0.15 0.16 0.18 0.23 0.27 0.35 0.41 0.41 0.38 0.41 0.59 0.67 0.75 0.90 1.09 1.27 1.53 1.74 1.79 1.46 1.23
0.02 0.05 0.18 0.22 0.16 0.12 0.11 0.14 0.18 0.19 0.18 0.17 0.16 0.15 0.13 0.09 0.07 0.06 0.07 0.09 0.10 0.13 0.14 0.15 0.18 0.21 0.27 0.28 0.31 0.31 0.34 0.50 0.70 0.87 1.09 1.20 1.28 1.45 1.60 1.73 1.75 1.27 1.07
0.01 0.02 0.10 0.19 0.16 0.14 0.12 0.13 0.15 0.17 0.17 0.17 0.15 0.14 0.11 0.08 0.08 0.07 0.09 0.10 0.11 0.12 0.11 0.13 0.18 0.22 0.26 0.28 0.28 0.32 0.39 0.58 0.89 1.20 1.42 1.32 1.05 1.33 1.43 1.60 1.57 1.05 0.94
0.02 0.01 0.03 0.13 0.15 0.13 0.13 0.14 0.14 0.15 0.13 0.13 0.13 0.12 0.10 0.09 0.10 0.10 0.11 0.11 0.13 0.13 0.14 0.17 0.23 0.21 0.19 0.24 0.30 0.37 0.47 0.65 0.91 1.32 1.38 1.16 0.89 1.03 1.22 1.17 1.13 0.94 0.89
0.03 0.02 0.05 0.11 0.12 0.12 0.12 0.12 0.12 0.12 0.11 0.11 0.11 0.11 0.09 0.09 0.10 0.11 0.12 0.13 0.16 0.17 0.19 0.22 0.25 0.21 0.19 0.20 0.28 0.40 0.53 0.73 0.92 1.19 1.01 1.08 1.15 1.06 1.02 0.95 0.95 0.82 0.75
0.05 0.04 0.07 0.11 0.12 0.12 0.12 0.12 0.12 0.11 0.10 0.10 0.11 0.10 0.09 0.09 0.10 0.12 0.13 0.15 0.18 0.21 0.20 0.22 0.21 0.21 0.20 0.21 0.30 0.42 0.62 0.85 0.95 0.79 0.71 0.87 0.89 1.02 0.94 0.90 0.82 0.73 0.62
0.04 0.05 0.07 0.14 0.15 0.15 0.14 0.14 0.14 0.13 0.11 0.11 0.12 0.11 0.11 0.11 0.12 0.13 0.14 0.16 0.17 0.22 0.20 0.19 0.20 0.23 0.25 0.27 0.33 0.41 0.58 0.82 0.81 0.64 0.66 0.82 0.78 0.85 0.93 0.92 0.87 0.72 0.59
0.07 0.06 0.10 0.16 0.18 0.18 0.18 0.18 0.17 0.15 0.14 0.13 0.14 0.13 0.13 0.14 0.13 0.14 0.16 0.19 0.19 0.21 0.20 0.21 0.20 0.22 0.28 0.31 0.36 0.39 0.52 0.67 0.63 0.54 0.56 0.65 0.69 0.77 0.94 0.86 0.78 0.70 0.59
0.30 0.17 0.14 0.14 0.18 0.20 0.23 0.21 0.19 0.18 0.17 0.16 0.15 0.14 0.13 0.13 0.13 0.15 0.19 0.21 0.22 0.23 0.22 0.22 0.23 0.25 0.29 0.31 0.36 0.39 0.50 0.64 0.64 0.67 0.59 0.52 0.59 0.75 0.98 0.89 0.78 0.71 0.64
0.55 0.33 0.26 0.25 0.30 0.28 0.26 0.24 0.24 0.22 0.20 0.17 0.16 0.14 0.13 0.14 0.18 0.24 0.26 0.26 0.26 0.30 0.30 0.30 0.32 0.35 0.39 0.39 0.45 0.53 0.63 0.63 0.68 0.80 0.63 0.42 0.56 0.79 1.05 1.04 0.95 0.94 0.81
0.85 0.72 0.62 0.53 0.46 0.47 0.42 0.34 0.36 0.36 0.34 0.30 0.30 0.30 0.32 0.43 0.47 0.59 0.54 0.57 0.51 0.51 0.53 0.53 0.56 0.60 0.61 0.53 0.62 0.73 0.71 0.77 0.96 0.92 0.67 0.49 0.63 0.94 1.10 1.16 1.09 1.04 1.01
1.14 1.04 1.02 0.86 0.66 0.57 0.53 0.64 0.77 0.74 0.76 0.74 0.80 0.77 0.86 0.92 0.91 0.78 0.86 0.95 0.97 1.05 1.04 1.06 1.24 1.11 0.88 0.72 0.89 1.04 0.89 0.91 1.03 0.79 0.58 0.60 0.75 1.02 1.20 1.18 1.14 1.09 1.08
1.57 1.36 1.15 1.12 1.02 0.97 0.99 0.99 1.01 1.13 1.21 1.32 1.39 1.36 1.47 1.28 1.12 1.04 1.26 1.42 1.38 1.37 1.29 1.54 1.76 1.43 1.36 1.47 1.48 1.37 1.25 1.12 1.12 0.91 0.78 0.85 0.97 1.20 1.34 1.23 1.21 1.17 1.05
2.14 2.06 1.95 1.73 1.57 1.53 1.41 1.22 1.12 1.08 1.15 1.27 1.39 1.45 1.61 1.66 1.56 1.59 1.72 1.60 1.57 1.59 1.78 1.80 1.96 1.84 1.73 1.67 1.64 1.74 1.68 1.40 1.33 1.24 1.25 1.27 1.31 1.43 1.51 1.42 1.36 1.31 1.21
2.58 2.67 3.10 2.86 2.36 2.01 1.74 1.46 1.19 1.09 0.97 0.97 1.09 1.31 1.49 1.61 1.72 1.83 1.67 1.54 1.37 1.61 1.86 1.91 1.76 1.93 1.94 1.99 1.98 1.97 2.00 1.75 1.57 1.45 1.50 1.68 1.62 1.58 1.65 1.68 1.64 1.56 1.51
3.38 3.36 3.44 3.66 3.14 2.42 1.92 1.62 1.34 1.07 1.06 1.06 1.08 1.15 1.33 1.48 1.57 1.62 1.57 1.48 1.42 1.57 1.76 1.78 1.77 1.99 2.09 2.08 1.82 1.72 1.72 1.76 1.67 1.46 1.58 1.69 1.70 1.54 1.61 1.80 1.86 1.82 1.83
3.96 4.08 4.06 4.12 3.79 3.19 2.65 2.12 1.61 1.34 1.15 1.16 1.17 1.08 1.09 1.22 1.27 1.38 1.41 1.36 1.40 1.46 1.47 1.46 1.52 1.71 1.69 1.63 1.50 1.46 1.52 1.55 1.62 1.58 1.44 1.46 1.58 1.64 1.56 1.69 1.80 1.84 1.96
4.55 4.78 4.76 4.50 4.33 3.76 3.11 2.60 2.19 1.87 1.58 1.31 1.18 1.03 0.87 0.93 0.99 1.08 1.06 1.08 1.12 1.15 1.14 1.17 1.23 1.34 1.43 1.53 1.53 1.42 1.55 1.62 1.55 1.62 1.57 1.45 1.63 1.53 1.72 1.85 1.82 1.77 1.96
5.68 6.11 5.88 5.18 4.62 3.98 3.30 2.85 2.68 2.45 2.04 1.65 1.46 1.21 0.99 0.88 0.89 0.95 0.95 0.97 0.86 0.88 0.90 0.85 0.99 1.13 1.24 1.30 1.24 1.30 1.27 1.32 1.32 1.29 1.43 1.31 1.39 1.48 1.63 1.71 1.80 1.74 1.99
6.08 6.76 6.64 5.90 4.86 4.04 3.54 3.11 2.92 2.61 2.19 1.77 1.53 1.32 1.06 0.91 0.84 0.82 0.77 0.73 0.64 0.69 0.77 0.81 0.96 0.99 0.99 1.05 0.98 1.07 1.03 0.96 1.03 1.09 1.06 1.09 1.14 1.09 1.33 1.52 1.64 1.40 1.73
5.07 5.56 5.48 4.79 4.14 3.42 2.84 2.27 2.09 1.90 1.69 1.50 1.32 1.12 1.00 0.88 0.80 0.75 0.65 0.67 0.56 0.56 0.60 0.58 0.68 0.74 0.76 0.82 0.99 1.03 0.90 0.83 0.85 0.86 0.82 0.87 0.91 1.00 1.30 1.48 1.49 1.42 1.27
3.62 3.77 3.31 3.02 2.79 2.31 2.02 1.81 1.62 1.54 1.35 1.19 1.09 0.99 0.76 0.68 0.68 0.62 0.66 0.60 0.55 0.57 0.53 0.53 0.60 0.66 0.67 0.68 0.81 0.88 0.85 0.86 0.83 0.66 0.73 0.75 0.81 1.01 1.15 1.13 1.21 1.34 1.15
2.50 2.41 2.09 1.92 2.02 1.89 1.82 1.72 1.60 1.60 1.51 1.32 1.07 0.93 0.73 0.57 0.54 0.58 0.62 0.62 0.61 0.51 0.50 0.53 0.51 0.55 0.56 0.54 0.61 0.72 0.76 0.77 0.71 0.64 0.64 0.67 0.75 0.87 0.91 1.02 0.95 0.95 1.03
1.63 1.66 1.80 1.80 1.78 1.66 1.62 1.39 1.18 1.06 0.96 0.88 0.84 0.79 0.75 0.62 0.51 0.48 0.51 0.60 0.58 0.49 0.54 0.41 0.41 0.48 0.52 0.45 0.45 0.50 0.51 0.59 0.68 0.72 0.66 0.64 0.67 0.67 0.70 0.76 0.79 0.83 0.86
1.20 1.42 1.75 1.78 1.64 1.50 1.43 1.36 1.33 1.21 1.13 0.97 0.88 0.90 0.84 0.79 0.66 0.49 0.43 0.50 0.55 0.55 0.61 0.51 0.49 0.44 0.43 0.40 0.39 0.44 0.44 0.41 0.46 0.60 0.67 0.66 0.64 0.53 0.52 0.55 0.57 0.63 0.69
1.10 1.19 1.37 1.48 1.59 1.58 1.57 1.52 1.40 1.30 1.25 1.12 0.95 0.85 0.80 0.77 0.72 0.63 0.56 0.61 0.62 0.58 0.59 0.54 0.54 0.51 0.49 0.46 0.37 0.38 0.53 0.49 0.39 0.44 0.49 0.55 0.55 0.41 0.41 0.46 0.48 0.53 0.62